一网星座-0380星 (ONEWEB-0380 )

导读

ONEWEB-0380是英国OneWeb公司低轨宽带星座中的一颗卫星,于2021年10月14日发射入轨。OneWeb星座旨在为全球提供高速互联网接入服务,通过部署近地轨道卫星群,填补地面网络覆盖盲区,服务偏远地区通信、航空海事联网等场景,ONEWEB-0380是该星座建设过程中重要的组网卫星之一,助力OneWeb实现全球互联的目标。

基本信息
目录编号:
49306
目录名称:
ONEWEB-0380
国际标识:
2021-090AD
轨道中心:
EARTH
卫星名称:
一网星座-0380星
卫星全名:
一网星座-0380星 (ONEWEB-0380 )
卫星状态:
在轨 (已飞行1797 天)
发射日期:
2021-10-14 UTC
国别 :
英国 (GB)
星等 :
--
该卫星已列入 空间交会检测服务 Space Conjunction Data Service (SCDS) ,当前飞行风险评估等级: 无高风险
轨道信息
数据来源 国际轨道数据 AOE轨道数据
星历时间 2026-09-15T15:57:05+0800
14小时前
查看轨道信息
2026-09-16T00:00:00+0800
6小时前
查看轨道信息
半长轴 7563.906km 7563.902km
偏心率 0.0001887 0.0001805
轨道倾角 87.911° 87.910°
近地点辐角 98.436° 94.585°
升交点赤经 287.012° 286.945°
平近点角 261.699° 57.959°
近地点 1184.341km 1184.399km
远地点 1187.197km 1187.131km
周期 109.114分钟 109.114分钟
每日圈数 13.197256 13.197265
详细信息
平衡模式:
三轴稳定
覆盖范围:
全球
运营商:
一网卫星公司
运营商所在国:
英国
制造商(研发单位):
一网卫星公司
制造商所在国:
英国
使用方式:
暂无
卫星简介
OneWeb卫星网络由648颗重约125公斤的微型卫星组成,运行在1200公里的轨道上。 每颗卫星都能够提供至少每秒8千兆位的吞吐量,以使用其高吞吐量的Ku频段有效载荷为家庭和移动平台提供互联网接入。该卫星仍在工作。
2D轨道图
3D轨道图
轨道高度分析图
轨道倾角分析图
轨道综合分析图
查看轨道综合分析图
与全量物体交会距离演化趋势 订阅飞行安全评估服务
与全量物体交会风险概率演化趋势 订阅飞行安全评估服务